Weather in Khalimbekaul

Russia / Republic of Dagestan     42°50′40″N   47°08′32″E
temp.,
°C
wind,
m/s
gust,
m/s
humid.,
%
clouds,
%
prec.,
mm/h
press.,
hPa
HPBL,
m
27 june, mon
mon2700:00+18wsw3483100 2.9 100860
03:00+17wsw22830 2.9 100826
06:00+20wsw23750 0.0 1008109
09:00+23nnw34630 0.0 1008681
12:00+26n54521 0.0 10091273
15:00+27nnw4447100 0.0 10081417
18:00+26nw3555100 0.0 1008278
21:00+21w336391 0.0 100935
28 june, tue
tue2800:00+20w33685 0.0 100939
03:00+18wsw337210 0.0 100833
06:00+20nw38740 0.0 1009517
09:00+24nnw68550 0.0 1009922
12:00+26nnw910460 0.0 10091335
15:00+26n89428 0.0 10091711
18:00+22n68510 0.0 1011677
21:00+17wsw33580 0.1 101328
29 june, wed
wed2900:00+17sw33593 0.0 101329
03:00+17sw33643 0.0 101329
06:00+19wsw23632 0.0 1013131
09:00+23nnw34395 0.0 10131063
12:00+25n333762 0.3 10131539
15:00+25n3339100 0.4 10131591
18:00+21n2276100 0.1 1014368
21:00+18e1192100 0.1 101519
30 june, thu
thu3000:00+17se1189100 0.0 101430
03:00+16ese1295100 0.0 1014115
06:00+17ese228782 0.0 1015398
09:00+20e336651 0.1 1015696
12:00+23ene434837 0.0 10131241
15:00+22e54456 0.0 1013932
18:00+19e34510 0.1 1014485
21:00+15sse226311 0.1 101513
1 july, fri
fri100:00+16s116099 0.0 101413
03:00+16se115983 0.0 101311
06:00+17ese116082 0.0 101469
09:00+18ese225164 0.0 1014402
12:00+21ne324070 0.1 10141224
15:00+19nw115296 0.2 1014628
18:00+18e126099 0.0 1015169
21:00+17ssw1160100 0.1 101714